Laconia, NH

2:47 PM EST on November 17, 2019 (GMT -0500)
Laconia Municipal

Weather History for KLCI - September, 2019

Change the Weather History Date:

Friday, September 27, 2019

  Actual Average Record
Temperature  
Mean Temperature 58 °F -  
Max Temperature 70 °F 65 °F 87 °F (2017)
Min Temperature 46 °F 44 °F 36 °F (1987)
Degree Days  
Heating Degree Days 7    
Growing Degree Days 8 (Base 50)    
Moisture  
Dew Point 49 °F    
Average Humidity 81    
Maximum Humidity 100    
Minimum Humidity 43    
Precipitation  
Precipitation 0.00 in - - ()
Sea Level Pressure  
Sea Level Pressure 30.02 in    
Wind  
Wind Speed 3 mph ()    
Max Wind Speed 9 mph    
Max Gust Speed -    
Visibility 8.5 miles    
Events Fog    
Averages and records for this station are not official NWS values.
T = Trace of Precipitation, MM = Missing Value Source: Averaged Metar Reports

Daily Weather History Graph

Daily Weather History Graph

Search for Another Location

Airport or City:

Astronomy

Sep. 27, 2019 Rise Set
Actual Time 6:38 AM EDT 6:34 PM EDT
Civil Twilight 6:09 AM EDT 7:02 PM EDT
Nautical Twilight 5:36 AM EDT 7:36 PM EDT
Astronomical Twilight 5:02 AM EDT 8:10 PM EDT
Moon 4:50 AM EDT (9/27) 6:27 PM EDT (9/27)
Length of Visible Light 12h 53m
Length of Day
11h 56m
Waning Crescent, 2% of the Moon is Illuminated
Sep 27
Waning Crescent
Sep 28
New
Oct 5
First Quarter
Oct 13
Full
Oct 21
Last Quarter

Hourly Weather History & Observations

Time (EDT) Temp. Dew Point Humidity Pressure Visibility Wind Dir Wind Speed Gust Speed Precip Events Conditions
12:09 AM 51.8 °F 50.0 °F 94% 29.87 in 1.0 mi Calm Calm - N/A   Clear
12:11 AM 50.0 °F 48.2 °F 94% 29.87 in 0.5 mi Calm Calm - N/A Fog Fog
12:20 AM 50.0 °F 50.0 °F 100% 29.87 in 0.8 mi SSW 3.5 mph - N/A   Clear
12:23 AM 50.0 °F 50.0 °F 100% 29.87 in 1.2 mi SSW 4.6 mph - N/A   Clear
12:26 AM 50.0 °F 50.0 °F 100% 29.87 in 4.0 mi SW 3.5 mph - N/A   Clear
12:56 AM 51.1 °F 51.1 °F 100% 29.89 in 10.0 mi SW 5.8 mph - N/A   Clear
1:56 AM 54.0 °F 50.0 °F 86% 29.91 in 10.0 mi WSW 6.9 mph - N/A   Clear
2:56 AM 52.0 °F 50.0 °F 93% 29.95 in 10.0 mi WSW 4.6 mph - N/A   Clear
3:56 AM 51.1 °F 48.9 °F 92% 29.96 in 10.0 mi West 4.6 mph - N/A   Clear
4:56 AM 48.9 °F 48.0 °F 97% 30.00 in 10.0 mi WSW 6.9 mph - N/A   Clear
5:56 AM 46.9 °F 46.9 °F 100% 30.02 in 9.0 mi Calm Calm - N/A   Partly Cloudy
6:56 AM 46.0 °F 46.0 °F 100% 30.05 in 10.0 mi Calm Calm - N/A   Clear
7:56 AM 48.9 °F 48.0 °F 97% 30.06 in 10.0 mi Calm Calm - N/A   Clear
8:56 AM 55.9 °F 50.0 °F 80% 30.09 in 10.0 mi Calm Calm - N/A   Clear
9:56 AM 59.0 °F 50.0 °F 72% 30.09 in 10.0 mi WSW 5.8 mph - N/A   Clear
10:56 AM 63.0 °F 50.0 °F 63% 30.09 in 10.0 mi WNW 8.1 mph - N/A   Clear
11:56 AM 64.9 °F 46.9 °F 52% 30.09 in 10.0 mi NW 9.2 mph - N/A   Clear
12:56 PM 66.9 °F 46.0 °F 47% 30.09 in 10.0 mi West 6.9 mph - N/A   Clear
1:56 PM 68.0 °F 45.0 °F 43% 30.08 in 10.0 mi WSW 4.6 mph - N/A   Clear
2:56 PM 69.1 °F 46.0 °F 44% 30.07 in 10.0 mi WSW 3.5 mph - N/A   Clear
3:56 PM 69.1 °F 48.0 °F 47% 30.06 in 10.0 mi SSW 6.9 mph - N/A   Clear
4:56 PM 70.0 °F 48.0 °F 46% 30.07 in 10.0 mi West 3.5 mph - N/A   Clear
5:56 PM 66.9 °F 51.1 °F 57% 30.08 in 10.0 mi South 4.6 mph - N/A   Clear
6:56 PM 57.9 °F 54.0 °F 87% 30.09 in 10.0 mi Calm Calm - N/A   Clear
7:56 PM 55.9 °F 53.1 °F 90% 30.10 in 10.0 mi Calm Calm - N/A   Clear
8:56 PM 54.0 °F 52.0 °F 93% 30.10 in 10.0 mi Calm Calm - N/A   Clear
9:56 PM 54.0 °F 52.0 °F 93% 30.11 in 10.0 mi Calm Calm - N/A   Clear
10:56 PM 53.1 °F 51.1 °F 93% 30.10 in 10.0 mi NW 4.6 mph - N/A   Clear
11:56 PM 53.1 °F 51.1 °F 93% 30.10 in 10.0 mi Calm Calm - N/A   Clear